Tracking 20712 objects as of 27-May-2020
HD Live streaming from Space Station
objects crossing your sky now

SL-8 R/B

Track SL-8 R/B now!
10-day predictions


NORAD ID: 11112
Int'l Code: 1978-105B
Perigee: 750.0 km
Apogee: 799.4 km
Inclination: 74.0 °
Period: 100.2 minutes
Semi major axis: 7145 km
RCS: 4.9315 m2 (large)
Launch date: November 16, 1978
Source: Commonwealth of Independent States (former USSR) (CIS)
Launch site: PLESETSK MISSILE AND SPACE COMPLEX (PKMTR)

Note: This is a ROCKET BODY
aabbcc
Your satellite tracking list
Your tracking list is empty




NASA's NSSDC Master Catalog

Two Line Element Set (TLE):
1 11112U 78105B   20148.49772457 +.00000066 +00000-0 +30981-4 0  9994
2 11112 074.0314 347.7713 0034554 242.8307 116.9322 14.37259301173983
Source of the keplerian elements: AFSPC